CW9197 Juva FI current weather conditions

sailwx.info

Wind from 285 at 4 knots gusting 12

Air temperature 10.0° C
Dewpoint 8.6° C

Last reported at 2016-Sep-30 10:55 UTC.
Time now 2016-Sep-30 11:48 UTC

Location: N 61°53' E 027°53'.
View on Google Maps.

See reports from other nearby stations

  
Tides and Currents Weather Stations Pressure Air Temp Water Temp Dewpoint Dewpoint Depression Visibility Wind Speed Wind Dir Waves Ship Positions
date/time (UTC)wind fromknots sea level pressurealtimeterstation pressurevisibilityair tempwater tempwave heightnotes
2016-Sep-30 10:55 285 4 gusting 12 10.0
2016-Sep-30 10:45 280 3 gusting 13 11.1
2016-Sep-30 10:35 223 6 gusting 9 11.7
2016-Sep-30 10:25 223 6 gusting 10 11.7
2016-Sep-30 10:15 226 6 gusting 14 11.1
2016-Sep-30 10:05 229 6 gusting 11 11.1
2016-Sep-30 09:55 223 6 gusting 10 11.1
2016-Sep-30 09:45 223 6 gusting 11 11.1
2016-Sep-30 09:35 224 6 gusting 10 11.7
2016-Sep-30 09:25 225 7 gusting 16 11.7
2016-Sep-30 09:15 222 6 gusting 12 11.1
2016-Sep-30 09:05 223 6 gusting 11 11.1
2016-Sep-30 08:55 223 7 gusting 13 11.1
2016-Sep-30 08:45 223 6 gusting 11 10.6
2016-Sep-30 08:35 225 6 gusting 12 10.6
2016-Sep-30 08:25 223 6 gusting 14 10.6
2016-Sep-30 08:15 224 6 gusting 10 10.6
2016-Sep-30 08:05 221 6 gusting 9 10.6
2016-Sep-30 07:55 222 6 gusting 12 10.6
2016-Sep-30 07:45 221 6 gusting 10 10.6
2016-Sep-30 07:35 217 7 gusting 12 10.6
2016-Sep-30 07:25 219 6 gusting 12 10.6
2016-Sep-30 07:15 219 6 gusting 9 10.0
2016-Sep-30 07:05 217 6 gusting 12 10.0
2016-Sep-30 06:55 219 6 gusting 9 10.0
2016-Sep-30 06:45 220 6 gusting 10 10.0
2016-Sep-30 06:35 219 7 gusting 11 9.4
2016-Sep-30 06:25 219 6 gusting 12 9.4
2016-Sep-30 06:15 222 6 gusting 8 9.4
2016-Sep-30 06:05 219 6 gusting 9 9.4
2016-Sep-30 05:55 214 6 gusting 12 9.4
2016-Sep-30 05:45 214 6 gusting 8 9.4
2016-Sep-30 05:35 218 6 gusting 9 9.4
2016-Sep-30 05:25 215 6 gusting 10 9.4
2016-Sep-30 05:15 214 6 gusting 8 9.4
2016-Sep-30 05:05 217 6 gusting 8 9.4
2016-Sep-30 04:55 213 6 gusting 12 8.9
2016-Sep-30 04:45 218 6 gusting 10 8.9
2016-Sep-30 04:35 217 6 gusting 9 8.9
2016-Sep-30 04:25 217 6 gusting 10 8.9
2016-Sep-30 04:15 219 6 gusting 9 8.9
2016-Sep-30 04:05 214 6 gusting 13 8.9
2016-Sep-30 03:55 214 6 gusting 10 8.9
2016-Sep-30 03:45 216 6 gusting 10 8.9
2016-Sep-30 03:35 215 6 gusting 8 9.4
2016-Sep-30 03:25 219 6 gusting 7 9.4
2016-Sep-30 03:15 214 6 gusting 9 8.9
2016-Sep-30 03:05 217 6 gusting 9 8.9
2016-Sep-30 02:55 220 6 gusting 8 8.9
2016-Sep-30 02:45 219 6 gusting 10 8.9
2016-Sep-30 02:35 218 6 gusting 9 8.9
2016-Sep-30 02:25 220 6 gusting 9 8.9
2016-Sep-30 02:15 217 6 gusting 9 8.9
2016-Sep-30 02:05 219 6 gusting 9 8.9
2016-Sep-30 01:55 219 6 gusting 9 8.9
2016-Sep-30 01:45 220 6 gusting 9 8.9
2016-Sep-30 01:35 219 6 gusting 10 8.9
2016-Sep-30 01:25 219 6 gusting 8 8.9
2016-Sep-30 01:15 220 6 gusting 10 8.9
2016-Sep-30 01:05 220 7 gusting 11 8.9
2016-Sep-30 00:55 218 6 gusting 9 8.9
2016-Sep-30 00:45 219 6 gusting 7 8.9
2016-Sep-30 00:35 217 5 gusting 7 8.9
2016-Sep-30 00:25 218 5 gusting 7 8.9
2016-Sep-30 00:15 217 3 gusting 6 8.9
2016-Sep-30 00:05 214 3 gusting 4 8.9
2016-Sep-29 23:55 217 3 gusting 6 8.9
2016-Sep-29 23:45 206 6 gusting 8 9.4
2016-Sep-29 23:35 223 6 gusting 12 9.4
2016-Sep-29 23:25 222 5 gusting 8 9.4
2016-Sep-29 23:15 220 7 gusting 11 9.4
2016-Sep-29 23:05 219 6 gusting 10 9.4
2016-Sep-29 22:55 223 9 gusting 15 11.7
2016-Sep-29 22:45 206 4 gusting 7 12.2
2016-Sep-29 22:35 209 3 gusting 5 12.2
2016-Sep-29 22:25 211 5 gusting 13 11.7
2016-Sep-29 22:15 209 5 gusting 8 11.7
2016-Sep-29 22:05 208 6 gusting 9 11.7
2016-Sep-29 21:55 205 5 gusting 10 11.7
2016-Sep-29 21:45 204 5 gusting 9 11.7
2016-Sep-29 21:35 207 6 gusting 10 11.7
2016-Sep-29 21:25 206 6 gusting 13 11.7
2016-Sep-29 21:15 204 6 gusting 10 11.7
2016-Sep-29 21:05 202 6 gusting 10 11.7
2016-Sep-29 20:55 196 5 gusting 9 11.7
2016-Sep-29 20:45 202 4 gusting 7 11.7
2016-Sep-29 20:35 204 6 gusting 8 11.7
2016-Sep-29 20:25 203 8 gusting 14 11.7
2016-Sep-29 20:15 205 6 gusting 12 11.1
2016-Sep-29 20:05 207 7 gusting 19 11.1
2016-Sep-29 19:55 205 8 gusting 15 11.1
2016-Sep-29 19:45 191 8 gusting 13 11.1
2016-Sep-29 19:35 209 7 gusting 12 11.1
2016-Sep-29 19:25 202 10 gusting 15 11.1
2016-Sep-29 19:15 201 8 gusting 15 11.1
2016-Sep-29 19:05 197 9 gusting 18 11.1
2016-Sep-29 18:55 195 8 gusting 16 11.1
2016-Sep-29 18:45 191 8 gusting 14 11.1
2016-Sep-29 18:35 192 7 gusting 13 11.1
2016-Sep-29 18:25 192 10 gusting 18 11.1
2016-Sep-29 18:15 184 8 gusting 19 11.1
2016-Sep-29 18:05 191 8 gusting 17 11.1
2016-Sep-29 17:55 188 7 gusting 14 11.1
2016-Sep-29 17:45 197 6 gusting 11 11.1
2016-Sep-29 17:35 192 8 gusting 20 11.1
2016-Sep-29 17:25 187 6 gusting 13 11.1
2016-Sep-29 17:15 184 6 gusting 14 11.1
2016-Sep-29 17:05 185 6 gusting 15 11.1
2016-Sep-29 16:55 187 4 gusting 10 11.1
2016-Sep-29 16:45 188 5 gusting 11 11.1
2016-Sep-29 16:35 194 5 gusting 12 11.1
2016-Sep-29 16:25 182 4 gusting 10 11.1
2016-Sep-29 16:15 190 4 gusting 8 11.1
2016-Sep-29 16:05 184 4 gusting 13 11.1
2016-Sep-29 15:55 183 3 gusting 7 10.6
2016-Sep-29 15:45 178 4 gusting 11 10.6
2016-Sep-29 15:35 177 5 gusting 12 10.6
2016-Sep-29 15:25 180 3 gusting 7 10.6
2016-Sep-29 15:15 185 3 gusting 6 10.6
2016-Sep-29 15:05 181 3 gusting 6 10.6
2016-Sep-29 14:55 184 4 gusting 10 10.6
2016-Sep-29 14:45 188 3 gusting 8 10.6
2016-Sep-29 14:35 194 3 gusting 7 10.6
2016-Sep-29 14:25 187 4 gusting 12 10.6
2016-Sep-29 14:15 194 3 gusting 6 10.6
2016-Sep-29 14:05 199 3 gusting 7 10.6
2016-Sep-29 13:55 202 3 gusting 6 10.6
2016-Sep-29 13:45 197 2 gusting 7 10.6
2016-Sep-29 13:35 191 2 gusting 6 11.1
2016-Sep-29 13:25 188 3 gusting 7 11.1
2016-Sep-29 13:15 191 2 gusting 7 11.1
2016-Sep-29 13:05 204 2 gusting 6 11.1
2016-Sep-29 12:55 200 2 gusting 6 11.1
2016-Sep-29 12:45 197 2 gusting 6 11.1
2016-Sep-29 12:35 187 2 gusting 6 11.7
2016-Sep-29 12:25 197 2 gusting 7 11.7
2016-Sep-29 12:15 200 2 gusting 5 11.7
2016-Sep-29 12:05 201 2 gusting 4 11.7
2016-Sep-29 11:55 183 2 gusting 6 11.7
2016-Sep-29 11:45 183 2 gusting 8 11.7
2016-Sep-29 11:35 182 2 gusting 5 11.7
2016-Sep-29 11:25 196 1 gusting 5 11.7
2016-Sep-29 11:15 202 1 gusting 4 11.7
2016-Sep-29 11:05 201 1 gusting 4 11.7
2016-Sep-29 10:55 186 1 gusting 4 11.1
2016-Sep-29 10:45 200 1 gusting 3 11.1
2016-Sep-29 10:35 206 1 gusting 3 11.1
2016-Sep-29 10:25 210 1 gusting 3 11.1
2016-Sep-29 10:15 212 1 gusting 2 11.1
2016-Sep-29 10:05 207 2 gusting 4 11.1
2016-Sep-29 09:55 212 1 gusting 2 11.1
2016-Sep-29 09:45 213 1 gusting 2 11.1
2016-Sep-29 09:35 211 1 gusting 2 11.1
2016-Sep-29 09:25 211 1 gusting 3 11.1
2016-Sep-29 09:15 210 1 gusting 2 11.1
2016-Sep-29 09:05 219 1 gusting 3 11.1
2016-Sep-29 08:55 212 2 gusting 4 11.1
2016-Sep-29 08:45 215 2 gusting 5 11.1
2016-Sep-29 08:35 206 2 gusting 4 10.6
2016-Sep-29 08:25 212 1 gusting 4 10.6
2016-Sep-29 08:15 209 1 gusting 3 10.6
2016-Sep-29 08:05 217 2 gusting 5 10.6
2016-Sep-29 07:55 229 2 gusting 4 10.6
2016-Sep-29 07:45 226 0 gusting 1 10.6
2016-Sep-29 07:35 220 0 gusting 2 10.6
2016-Sep-29 07:25 219 1 gusting 2 10.6
2016-Sep-29 07:15 221 1 gusting 3 10.6
2016-Sep-29 07:05 218 1 gusting 3 10.6
2016-Sep-29 06:55 221 1 gusting 3 10.6
2016-Sep-29 06:45 194 0 gusting 2 10.6
2016-Sep-29 06:35 216 0 gusting 1 10.6
2016-Sep-29 06:25 218 0 gusting 2 11.1
2016-Sep-29 06:15 179 10.6
2016-Sep-29 06:05 210 0 gusting 3 10.0
2016-Sep-29 05:55 217 0 gusting 1 10.0
2016-Sep-29 05:45 210 10.0
2016-Sep-29 05:35 213 10.0
2016-Sep-29 05:25 223 10.0
2016-Sep-29 05:15 203 9.4
2016-Sep-29 05:05 217 9.4
2016-Sep-29 04:55 202 9.4
2016-Sep-29 04:45 206 0 gusting 1 9.4
2016-Sep-29 04:35 204 9.4
2016-Sep-29 04:25 212 9.4
2016-Sep-29 04:15 190 0 gusting 1 9.4
2016-Sep-29 04:05 208 1 gusting 3 9.4
2016-Sep-29 03:55 205 1 gusting 3 9.4
2016-Sep-29 03:45 207 1 gusting 2 9.4
2016-Sep-29 03:35 197 0 gusting 2 9.4
2016-Sep-29 03:25 201 0 gusting 3 9.4
2016-Sep-29 03:15 190 1 gusting 4 9.4
2016-Sep-29 03:05 183 0 gusting 2 9.4
2016-Sep-29 02:55 183 1 gusting 3 9.4
2016-Sep-29 02:45 190 1 gusting 5 9.4
2016-Sep-29 02:35 166 1 gusting 3 9.4
2016-Sep-29 02:25 174 1 gusting 3 9.4
2016-Sep-29 02:15 171 1 gusting 3 9.4
2016-Sep-29 02:05 167 1 gusting 5 9.4
2016-Sep-29 01:55 172 1 gusting 5 9.4
2016-Sep-29 01:45 170 1 gusting 3 9.4
2016-Sep-29 01:35 172 3 gusting 8 8.9
2016-Sep-29 01:25 169 3 gusting 6 9.4
2016-Sep-29 01:15 166 2 gusting 8 9.4
2016-Sep-29 01:05 168 2 gusting 5 9.4
2016-Sep-29 00:55 172 2 gusting 6 9.4
2016-Sep-29 00:45 181 2 gusting 6 9.4
2016-Sep-29 00:35 165 3 gusting 6 9.4
2016-Sep-29 00:25 162 3 gusting 8 9.4
2016-Sep-29 00:15 172 2 gusting 6 9.4
2016-Sep-29 00:05 166 2 gusting 6 9.4
2016-Sep-28 23:55 171 2 gusting 8 9.4
2016-Sep-28 23:45 171 2 gusting 6 9.4
2016-Sep-28 23:35 175 2 gusting 5 9.4
2016-Sep-28 23:25 174 2 gusting 6 9.4
2016-Sep-28 23:15 170 3 gusting 6 9.4
2016-Sep-28 23:05 171 3 gusting 12 9.4
2016-Sep-28 22:55 170 4 gusting 8 9.4
2016-Sep-28 22:45 170 3 gusting 8 9.4
2016-Sep-28 22:35 162 2 gusting 7 9.4
2016-Sep-28 22:25 174 2 gusting 9 9.4
2016-Sep-28 22:15 173 3 gusting 7 9.4
2016-Sep-28 22:05 172 2 gusting 6 9.4
2016-Sep-28 21:55 177 3 gusting 8 9.4
2016-Sep-28 21:45 178 2 gusting 9 9.4
2016-Sep-28 21:35 179 3 gusting 6 9.4
2016-Sep-28 21:25 173 3 gusting 7 9.4
2016-Sep-28 21:15 178 4 gusting 8 9.4
2016-Sep-28 21:05 168 4 gusting 8 9.4
2016-Sep-28 20:55 175 4 gusting 8 9.4
2016-Sep-28 20:45 175 4 gusting 8 9.4
2016-Sep-28 20:35 169 4 gusting 9 9.4
2016-Sep-28 20:25 173 3 gusting 8 9.4
2016-Sep-28 20:15 169 4 gusting 7 9.4
2016-Sep-28 20:05 165 4 gusting 11 9.4
2016-Sep-28 19:55 171 3 gusting 8 9.4
2016-Sep-28 19:45 170 3 gusting 8 9.4
2016-Sep-28 19:35 173 2 gusting 11 9.4
2016-Sep-28 19:25 165 2 gusting 8 9.4
2016-Sep-28 19:15 165 3 gusting 9 10.0
2016-Sep-28 19:05 169 4 gusting 10 10.0
2016-Sep-28 18:55 168 3 gusting 10 10.0
2016-Sep-28 18:45 179 2 gusting 6 10.0
2016-Sep-28 18:35 168 2 gusting 7 10.0
2016-Sep-28 18:25 170 3 gusting 8 10.6
2016-Sep-28 18:15 173 3 gusting 9 10.6
2016-Sep-28 18:05 174 3 gusting 8 10.6
2016-Sep-28 17:55 176 3 gusting 11 10.6
2016-Sep-28 17:45 172 5 gusting 10 10.6
2016-Sep-28 17:35 175 3 gusting 9 11.1
2016-Sep-28 17:25 175 3 gusting 12 11.1
2016-Sep-28 17:15 167 3 gusting 10 11.1
2016-Sep-28 17:05 169 4 gusting 9 11.1
2016-Sep-28 16:55 173 4 gusting 7 11.1
2016-Sep-28 16:45 174 4 gusting 11 11.1
2016-Sep-28 16:35 176 4 gusting 10 11.1
2016-Sep-28 16:25 177 3 gusting 9 11.1
2016-Sep-28 16:15 165 3 gusting 8 11.1
2016-Sep-28 16:05 179 4 gusting 9 11.1
2016-Sep-28 15:55 173 3 gusting 6 11.1
2016-Sep-28 15:45 174 2 gusting 7 11.1
2016-Sep-28 15:35 173 3 gusting 7 11.1
2016-Sep-28 15:25 174 3 gusting 9 11.1
2016-Sep-28 15:15 167 3 gusting 7 11.1
2016-Sep-28 15:05 180 3 gusting 9 11.1
2016-Sep-28 14:55 187 4 gusting 8 11.7
2016-Sep-28 14:45 174 3 gusting 8 11.7
2016-Sep-28 14:35 189 3 gusting 10 11.7
2016-Sep-28 14:25 178 3 gusting 8 11.7
2016-Sep-28 14:15 192 3 gusting 10 11.7
2016-Sep-28 14:05 185 3 gusting 6 11.7
2016-Sep-28 13:55 192 5 gusting 8 12.2
2016-Sep-28 13:45 189 5 gusting 10 12.2
2016-Sep-28 13:35 185 4 gusting 9 12.2
2016-Sep-28 13:25 174 4 gusting 9 12.2
2016-Sep-28 13:15 185 4 gusting 11 12.2
2016-Sep-28 13:05 185 5 gusting 12 12.2
2016-Sep-28 12:55 183 3 gusting 12 11.7
2016-Sep-28 12:45 181 3 gusting 9 11.7
2016-Sep-28 12:35 186 3 gusting 6 11.7
2016-Sep-28 12:25 189 4 gusting 11 11.7
2016-Sep-28 12:15 189 2 gusting 6 11.7
2016-Sep-28 12:05 179 4 gusting 9 12.2
2016-Sep-28 11:55 187 4 gusting 8 12.2
2016-Sep-28 11:45 184 3 gusting 9 12.2
2016-Sep-28 11:35 177 3 gusting 8 12.2
2016-Sep-28 11:25 174 2 gusting 5 12.2
2016-Sep-28 11:15 179 3 gusting 6 11.7
2016-Sep-28 11:05 173 2 gusting 6 11.7